Notices

What's New in latest Release from April 7th, 2021:

- Updated Glossary, including Speed of Maximum Gust, and Total Hourly Precipitation

- Updated national and regional climate services offices contacts and prices information

- Addition of station inventory lists for 1981-2010, 1971-2000, and 1961-1990 Normals.

If you haven't already, please take our survey and provide feedback about our website: https://eccc.sondage-survey.ca/f/LanguageSelection.aspx?s=442ca660-fcf1-47c0-95a9-59707d6fd709

Hourly Data Report for November 30, 2019

OTTAWA INTL A
ONTARIO
Current Station Operator: NAVCAN

45°19'00.000" N
75°40'00.000" W
114.90 m
6106001
71628
YOW

Download Data

Hourly Data (November 2019)
Hourly Data Report for November 30, 2019
TIME
LST
Temp Definition
°C
Dew Point Definition
°C
Rel Hum Definition
%
Precip. Amount Definition
mm

Wind Dir Definition
10's deg

Wind Spd Definition
km/h
Visibility Definition
km
Stn Press Definition
kPa
Hmdx Definition


Wind Chill Definition


Weather Definition


00:00 -8.8 -10.8 85   32 14 24.1 101.03   -15 LegendNANA
01:00 -8.6 -10.7 85   32 15 16.1 101.01   -15 Snow
02:00 -8.7 -11.9 77   34 17 24.1 101.04   -16 LegendNANA
03:00 -8.8 -12.1 77   34 16 24.1 101.02   -16 LegendNANA
04:00 -9.4 -12.9 76   34 18 24.1 101.00   -17 Mostly Cloudy
05:00 -9.7 -12.7 79   32 18 24.1 101.03   -17 Snow
06:00 -10.7 -13.7 79   32 13 24.1 101.01   -17 LegendNANA
07:00 -10.8 -13.8 79   32 17 16.1 101.02   -18 Clear
08:00 -10.7 -13.2 82   30 14 24.1 101.02   -17 LegendNANA
09:00 -9.8 -13.0 78   31 16 24.1 101.03   -17 LegendNANA
10:00 -9.0 -13.4 71   30 17 24.1 101.08   -16 Clear
11:00 -8.1 -12.9 69   29 17 24.1 100.99   -15 LegendNANA
12:00 -6.5 -12.3 64   30 14 24.1 100.86   -12 LegendNANA
13:00 -5.0 -11.5 61   29 14 24.1 100.77   -10 Clear
14:00 -4.1 -12.5 52   33 21 24.1 100.72   -11 LegendNANA
15:00 -4.8 -12.5 55   33 23 24.1 100.69   -12 LegendNANA
16:00 -6.2 -12.3 62   1 19 24.1 100.72   -13 Clear
17:00 -7.7 -12.5 69   36 18 24.1 100.74   -15 LegendNANA
18:00 -8.6 -12.6 73   36 14 24.1 100.75   -15 LegendNANA
19:00 -8.8 -12.3 76   36 14 24.1 100.71   -15 Clear
20:00 -9.3 -12.6 77   35 13 24.1 100.70   -15 LegendNANA
21:00 -9.6 -12.6 79   36 8 24.1 100.70   -14 LegendNANA
22:00 -10.5 -13.2 81   30 7 24.1 100.68   -15 Clear
23:00 -10.7 -13.7 79   31 7 24.1 100.70   -15 LegendNANA

Notes on Data Quality.

Legend

  • E = Estimated
  • M = Missing
  • NA = Not Available*
  • [empty] = Indicates an unobserved value
Date modified: